Hourly Weather Aylesbury

Today, 11 August, Tuesday

Time Temperature Precipitation Wind Pressure Humidity
00:00 +23°C° 0 mm 1 mps 753 mmHg 73%
01:00 +23°C° 0 mm 1 mps 753 mmHg 74%
02:00 +22°C° 0 mm 1 mps 753 mmHg 76%
03:00 +22°C° 0 mm 1 mps 752 mmHg 77%
04:00 +22°C° 0 mm 1 mps 752 mmHg 78%
05:00 +22°C° 0 mm 1 mps 752 mmHg 79%
06:00 +22°C° 0 mm 1 mps 752 mmHg 80%
07:00 +24°C° 0 mm 2 mps 753 mmHg 74%
08:00 +26°C° 0 mm 2 mps 753 mmHg 69%
09:00 +27°C° 0 mm 2 mps 753 mmHg 63%
10:00 +29°C° 0 mm 2 mps 753 mmHg 58%
11:00 +30°C° 0 mm 2 mps 753 mmHg 53%
12:00 +32°C° 0 mm 2 mps 753 mmHg 48%
13:00 +32°C° 0 mm 2 mps 753 mmHg 46%
14:00 +34°C° 0 mm 2 mps 753 mmHg 44%
15:00 +33°C° 0 mm 1 mps 752 mmHg 41%
16:00 +34°C° 0 mm 2 mps 752 mmHg 45%
17:00 +32°C° 0 mm 2 mps 752 mmHg 48%
18:00 +32°C° 0 mm 2 mps 752 mmHg 51%
19:00 +29°C° 0.6 mm 2 mps 752 mmHg 59%
20:00 +27°C° 0.6 mm 2 mps 752 mmHg 66%
21:00 +25°C° 0.6 mm 2 mps 752 mmHg 74%
22:00 +24°C° 0.2 mm 2 mps 752 mmHg 76%
23:00 +24°C° 0.2 mm 2 mps 752 mmHg 78%

Tomorrow, 12 August, Wednesday

Time Temperature Precipitation Wind Pressure Humidity
00:00 +23°C° 0.2 mm 2 mps 752 mmHg 80%
01:00 +23°C° 0 mm 2 mps 752 mmHg 80%
02:00 +23°C° 0 mm 1 mps 752 mmHg 80%
03:00 +22°C° 0 mm 1 mps 752 mmHg 81%
04:00 +23°C° 0 mm 1 mps 752 mmHg 80%
05:00 +23°C° 0 mm 1 mps 752 mmHg 80%
06:00 +23°C° 0 mm 1 mps 751 mmHg 79%
07:00 +25°C° 0 mm 1 mps 752 mmHg 73%
08:00 +27°C° 0 mm 1 mps 752 mmHg 67%
09:00 +28°C° 0 mm 2 mps 752 mmHg 61%
10:00 +30°C° 0 mm 2 mps 752 mmHg 57%
11:00 +31°C° 0 mm 2 mps 752 mmHg 52%
12:00 +33°C° 0 mm 3 mps 752 mmHg 48%
13:00 +33°C° 0.1 mm 3 mps 751 mmHg 48%
14:00 +33°C° 0.1 mm 3 mps 751 mmHg 48%
15:00 +33°C° 0.1 mm 3 mps 751 mmHg 47%
16:00 +31°C° 1.2 mm 2 mps 751 mmHg 56%
17:00 +29°C° 1.2 mm 2 mps 751 mmHg 64%
18:00 +27°C° 1.2 mm 2 mps 750 mmHg 73%
19:00 +26°C° 1.5 mm 2 mps 751 mmHg 76%
20:00 +25°C° 1.5 mm 2 mps 751 mmHg 80%
21:00 +24°C° 1.5 mm 2 mps 751 mmHg 83%
22:00 +23°C° 0.5 mm 2 mps 751 mmHg 85%
23:00 +23°C° 0.5 mm 2 mps 751 mmHg 87%

Day after tomorrow, 13 August, Thursday

Time Temperature Precipitation Wind Pressure Humidity
00:00 +21°C° 0.5 mm 3 mps 750 mmHg 89%
01:00 +21°C° 0.1 mm 2 mps 750 mmHg 91%
02:00 +21°C° 0.1 mm 2 mps 750 mmHg 92%
03:00 +21°C° 0.1 mm 1 mps 750 mmHg 93%
04:00 +22°C° 0 mm 1 mps 750 mmHg 92%
05:00 +22°C° 0 mm 1 mps 750 mmHg 91%
06:00 +22°C° 0 mm 1 mps 750 mmHg 90%
07:00 +23°C° 0 mm 2 mps 750 mmHg 84%
08:00 +25°C° 0 mm 2 mps 750 mmHg 79%
09:00 +26°C° 0 mm 2 mps 750 mmHg 73%
10:00 +27°C° 0 mm 2 mps 750 mmHg 68%
11:00 +28°C° 0 mm 3 mps 750 mmHg 64%
12:00 +29°C° 0 mm 3 mps 749 mmHg 59%
13:00 +30°C° 0.5 mm 3 mps 749 mmHg 58%
14:00 +30°C° 0.5 mm 3 mps 749 mmHg 58%
15:00 +30°C° 0.5 mm 3 mps 749 mmHg 57%
16:00 +29°C° 1.9 mm 3 mps 749 mmHg 64%
17:00 +27°C° 1.9 mm 3 mps 749 mmHg 72%
18:00 +26°C° 1.9 mm 3 mps 749 mmHg 79%
19:00 +25°C° 0.1 mm 3 mps 749 mmHg 82%
20:00 +23°C° 0.1 mm 2 mps 749 mmHg 86%
21:00 +22°C° 0.1 mm 1 mps 749 mmHg 89%
22:00 +22°C° 0 mm 1 mps 749 mmHg 90%
23:00 +21°C° 0 mm 1 mps 749 mmHg 91%

14 August, Friday

Time Temperature Precipitation Wind Pressure Humidity
00:00 +21°C° 0 mm 1 mps 749 mmHg 92%
01:00 +20°C° 0 mm 1 mps 749 mmHg 93%
02:00 +20°C° 0 mm 1 mps 749 mmHg 94%
03:00 +20°C° 0 mm 1 mps 749 mmHg 95%
04:00 +20°C° 0 mm 1 mps 750 mmHg 94%
05:00 +21°C° 0 mm 1 mps 750 mmHg 93%
06:00 +21°C° 0 mm 1 mps 750 mmHg 93%
07:00 +22°C° 0 mm 1 mps 750 mmHg 89%
08:00 +23°C° 0 mm 1 mps 750 mmHg 84%
09:00 +24°C° 0 mm 1 mps 751 mmHg 80%
10:00 +24°C° 0.8 mm 1 mps 751 mmHg 78%
11:00 +25°C° 0.8 mm 1 mps 751 mmHg 76%
12:00 +25°C° 0.8 mm 1 mps 751 mmHg 73%
13:00 +26°C° 1.9 mm 2 mps 751 mmHg 73%
14:00 +26°C° 1.9 mm 2 mps 751 mmHg 73%
15:00 +26°C° 1.9 mm 2 mps 751 mmHg 72%
16:00 +26°C° 2 mm 2 mps 751 mmHg 75%
17:00 +25°C° 2 mm 2 mps 751 mmHg 78%
18:00 +25°C° 2 mm 2 mps 751 mmHg 81%
19:00 +24°C° 1 mm 2 mps 751 mmHg 85%
20:00 +22°C° 1 mm 3 mps 751 mmHg 89%
21:00 +20°C° 1 mm 3 mps 752 mmHg 93%
22:00 +20°C° 0.1 mm 2 mps 752 mmHg 94%
23:00 +20°C° 0.1 mm 2 mps 752 mmHg 95%

15 August, Saturday

Time Temperature Precipitation Wind Pressure Humidity
00:00 +19°C° 0.1 mm 2 mps 752 mmHg 96%
01:00 +19°C° 0.1 mm 2 mps 752 mmHg 96%
02:00 +19°C° 0.1 mm 2 mps 752 mmHg 95%
03:00 +19°C° 0.1 mm 2 mps 752 mmHg 95%
04:00 +19°C° 0.1 mm 2 mps 752 mmHg 95%
05:00 +19°C° 0.1 mm 2 mps 752 mmHg 95%
06:00 +19°C° 0.1 mm 2 mps 752 mmHg 95%
07:00 +20°C° 0 mm 2 mps 752 mmHg 93%
08:00 +20°C° 0 mm 2 mps 752 mmHg 92%
09:00 +20°C° 0 mm 2 mps 752 mmHg 90%
10:00 +21°C° 0.1 mm 2 mps 752 mmHg 88%
11:00 +21°C° 0.1 mm 2 mps 752 mmHg 86%
12:00 +23°C° 0.1 mm 2 mps 752 mmHg 84%
13:00 +23°C° 0.2 mm 2 mps 752 mmHg 82%
14:00 +24°C° 0.2 mm 2 mps 752 mmHg 80%
15:00 +24°C° 0.2 mm 2 mps 752 mmHg 77%
16:00 +24°C° 0.3 mm 2 mps 752 mmHg 79%
17:00 +24°C° 0.3 mm 2 mps 751 mmHg 81%
18:00 +23°C° 0.3 mm 2 mps 751 mmHg 83%
19:00 +21°C° 0 mm 2 mps 751 mmHg 87%
20:00 +20°C° 0 mm 2 mps 751 mmHg 90%
21:00 +19°C° 0 mm 2 mps 751 mmHg 94%
22:00 +19°C° 0 mm 2 mps 751 mmHg 95%
23:00 +19°C° 0 mm 2 mps 751 mmHg 95%

16 August, Sunday

Time Temperature Precipitation Wind Pressure Humidity
00:00 +18°C° 0 mm 2 mps 751 mmHg 96%
01:00 +18°C° 0 mm 2 mps 751 mmHg 96%
02:00 +18°C° 0 mm 2 mps 750 mmHg 96%
03:00 +19°C° 0 mm 2 mps 750 mmHg 96%
04:00 +19°C° 0 mm 2 mps 750 mmHg 96%
05:00 +19°C° 0 mm 2 mps 750 mmHg 95%
06:00 +19°C° 0 mm 2 mps 750 mmHg 94%
07:00 +20°C° 0 mm 2 mps 750 mmHg 91%
08:00 +21°C° 0 mm 2 mps 750 mmHg 88%
09:00 +21°C° 0 mm 2 mps 750 mmHg 85%
10:00 +24°C° 0 mm 2 mps 750 mmHg 76%
11:00 +25°C° 0 mm 2 mps 749 mmHg 67%
12:00 +26°C° 0 mm 3 mps 749 mmHg 59%
13:00 +26°C° 0.8 mm 3 mps 749 mmHg 60%
14:00 +26°C° 0.8 mm 4 mps 749 mmHg 62%
15:00 +26°C° 0.8 mm 5 mps 748 mmHg 64%
16:00 +25°C° 0.7 mm 5 mps 748 mmHg 69%
17:00 +22°C° 0.7 mm 5 mps 748 mmHg 74%
18:00 +21°C° 0.7 mm 5 mps 748 mmHg 79%
19:00 +20°C° 0 mm 4 mps 748 mmHg 81%
20:00 +18°C° 0 mm 4 mps 749 mmHg 84%
21:00 +17°C° 0 mm 4 mps 749 mmHg 86%
22:00 +15°C° 0 mm 4 mps 749 mmHg 88%
23:00 +16°C° 0 mm 3 mps 749 mmHg 90%
Show more